Location: Newark
(42.8833°N, 20.3500°E)
Time: 10:38:13
(UTC+00:00)

Tiangong 2 - Visible Passes

Search period start: 17 July 2019 00:00
Search period end: 27 July 2019 00:00
Orbit: 378 x 386 km, 42.8° (Epoch: 17 July)

Date Brightness Start Highest point End Pass type
(mag) Time Alt. Az. Time Alt. Az. Time Alt. Az.
17 Jul 1.0 19:40:15 10° W 19:43:21 68° SSW 19:44:49 28° ESE visible
18 Jul 2.2 20:16:42 10° W 20:19:09 31° SW 20:19:09 31° SW visible
19 Jul 1.4 19:16:15 10° W 19:19:18 50° SSW 19:21:20 18° SE visible
20 Jul 2.7 19:52:55 10° W 19:55:23 21° SSW 19:55:41 21° SSW visible
21 Jul 2.1 18:52:18 10° W 18:55:10 34° SSW 18:57:54 11° SE visible
22 Jul 3.4 19:29:30 10° WSW 19:31:08 13° SSW 19:32:20 11° S visible
